Le nostre stazioni meteo in Italia

Pubblicità
Il mio iltempo24.it
Drumnadrochit, Gran Bretagna (99132): Temperatura & dewpoint: 18.06.2018 21:00:00 - 24.06.2018 21:00:00 (BST)Drumnadrochit, Gran Bretagna (99132): precipitazioni: 18.06.2018 21:00:00 - 24.06.2018 21:00:00 (BST)
Data & Tempo tt [°C] td [°C] rr [mm]
24.06.2018 21:00:00 - - -
24.06.2018 20:00:00 19,6 6,7 0,0
24.06.2018 19:00:00 21,4 6,4 0,0
24.06.2018 18:00:00 21,8 7,1 0,0
24.06.2018 17:00:00 21,5 5,7 0,0
24.06.2018 16:00:00 21,0 7,2 0,0
24.06.2018 15:00:00 20,5 8,5 0,0
24.06.2018 14:00:00 19,4 8,5 0,0
24.06.2018 13:00:00 18,1 7,4 0,0
24.06.2018 12:00:00 16,9 7,5 0,0
24.06.2018 11:00:00 16,4 7,8 0,0
24.06.2018 10:00:00 14,7 7,6 0,0
24.06.2018 09:00:00 14,1 7,3 0,0
24.06.2018 08:00:00 12,8 7,8 0,0
24.06.2018 07:00:00 11,1 7,0 0,0
24.06.2018 06:00:00 10,6 7,1 0,0
24.06.2018 05:00:00 11,6 8,1 0,0
24.06.2018 04:00:00 11,5 8,6 0,0
24.06.2018 03:00:00 11,5 8,8 0,0
24.06.2018 02:00:00 11,6 9,0 0,0
24.06.2018 01:00:00 11,1 8,8 0,0
24.06.2018 00:00:00 11,1 8,6 0,0
23.06.2018 23:00:00 11,4 8,9 0,0
23.06.2018 22:00:00 13,1 9,2 0,0
23.06.2018 21:00:00 14,4 9,6 0,0
23.06.2018 20:00:00 14,2 9,5 0,0
23.06.2018 19:00:00 14,8 9,3 0,0
23.06.2018 18:00:00 15,0 9,5 0,0
23.06.2018 17:00:00 15,1 9,2 0,0
23.06.2018 16:00:00 16,0 9,1 0,0
23.06.2018 15:00:00 16,1 8,6 0,0
23.06.2018 14:00:00 16,6 8,5 0,0
23.06.2018 13:00:00 15,8 8,2 0,0
23.06.2018 12:00:00 16,1 6,3 0,0
23.06.2018 11:00:00 15,2 7,2 0,0
23.06.2018 10:00:00 13,7 6,6 0,0
23.06.2018 09:00:00 12,9 6,9 0,0
23.06.2018 08:00:00 11,5 7,1 0,0
23.06.2018 07:00:00 10,4 7,4 0,0
23.06.2018 06:00:00 9,2 7,6 0,0
23.06.2018 05:00:00 9,2 6,7 0,0
23.06.2018 04:00:00 10,0 6,1 0,0
23.06.2018 03:00:00 10,0 6,0 0,0
23.06.2018 02:00:00 10,2 6,2 0,0
23.06.2018 01:00:00 9,9 6,4 0,0
23.06.2018 00:00:00 8,1 6,3 0,0
22.06.2018 23:00:00 10,2 6,2 0,0
22.06.2018 22:00:00 11,7 5,6 0,0
22.06.2018 21:00:00 13,6 5,7 0,0
22.06.2018 20:00:00 13,8 7,3 0,0
22.06.2018 19:00:00 13,7 8,0 0,2
22.06.2018 18:00:00 13,8 6,5 0,0
22.06.2018 17:00:00 16,2 5,9 0,0
22.06.2018 16:00:00 16,1 5,8 0,0
22.06.2018 15:00:00 15,7 7,2 0,0
22.06.2018 14:00:00 15,5 6,5 0,0
22.06.2018 13:00:00 14,4 6,4 0,0
22.06.2018 12:00:00 12,8 7,4 0,0
22.06.2018 11:00:00 12,4 6,8 0,0
22.06.2018 10:00:00 12,5 6,6 0,0
22.06.2018 09:00:00 11,5 4,6 0,0
22.06.2018 08:00:00 11,0 4,9 0,0
22.06.2018 07:00:00 8,5 7,1 0,0
22.06.2018 06:00:00 6,7 6,0 0,0
22.06.2018 05:00:00 6,2 4,7 0,0
22.06.2018 04:00:00 5,3 3,9 0,0
22.06.2018 03:00:00 6,8 4,6 0,0
22.06.2018 02:00:00 6,0 5,0 0,0
22.06.2018 01:00:00 6,7 3,3 0,0
22.06.2018 00:00:00 8,7 4,5 0,0
21.06.2018 23:00:00 10,0 4,0 0,0
21.06.2018 22:00:00 11,2 3,3 0,0
21.06.2018 21:00:00 12,2 3,2 0,0
21.06.2018 20:00:00 13,7 3,3 0,0
21.06.2018 19:00:00 14,3 3,0 0,0
21.06.2018 18:00:00 14,5 3,7 0,0
21.06.2018 17:00:00 15,0 2,4 0,0
21.06.2018 16:00:00 15,1 3,7 0,0
21.06.2018 15:00:00 14,1 2,6 0,0
21.06.2018 14:00:00 14,3 2,9 0,0
21.06.2018 13:00:00 13,5 3,7 0,0
21.06.2018 12:00:00 12,8 3,9 0,0
21.06.2018 11:00:00 12,1 6,4 0,0
21.06.2018 10:00:00 11,2 4,6 0,0
21.06.2018 09:00:00 11,7 3,6 0,0
21.06.2018 08:00:00 10,2 5,7 0,0
21.06.2018 07:00:00 8,2 6,9 0,0
21.06.2018 06:00:00 6,9 6,4 0,0
21.06.2018 05:00:00 6,8 6,3 0,0
21.06.2018 04:00:00 6,6 5,6 0,0
21.06.2018 03:00:00 7,2 5,3 0,0
21.06.2018 02:00:00 6,2 5,7 0,0
21.06.2018 01:00:00 4,9 4,1 0,0
21.06.2018 00:00:00 6,3 5,4 0,6
20.06.2018 23:00:00 6,7 6,1 0,0
20.06.2018 22:00:00 6,8 5,4 2,4
20.06.2018 21:00:00 9,4 5,0 0,2
20.06.2018 20:00:00 11,8 4,9 0,0
20.06.2018 19:00:00 12,4 5,6 0,0
20.06.2018 18:00:00 13,6 4,1 0,0
20.06.2018 17:00:00 12,3 4,7 0,0
20.06.2018 16:00:00 14,3 5,4 0,0
20.06.2018 15:00:00 12,2 8,5 0,6
20.06.2018 14:00:00 15,2 5,7 0,0
20.06.2018 13:00:00 14,5 5,6 0,0
20.06.2018 12:00:00 13,2 7,4 0,0
20.06.2018 11:00:00 12,5 7,5 0,0
20.06.2018 10:00:00 11,7 7,8 0,0
20.06.2018 09:00:00 10,3 7,2 0,0
20.06.2018 08:00:00 9,3 7,8 0,0
20.06.2018 07:00:00 8,6 7,5 1,0
20.06.2018 06:00:00 8,5 7,6 1,0
20.06.2018 05:00:00 8,6 8,1 1,0
20.06.2018 04:00:00 8,5 8,1 0,6
20.06.2018 03:00:00 8,5 8,2 0,2
20.06.2018 02:00:00 8,5 8,3 0,0
20.06.2018 01:00:00 8,6 8,3 0,4
20.06.2018 00:00:00 8,8 8,4 0,8
19.06.2018 23:00:00 9,1 8,5 0,2
19.06.2018 22:00:00 9,6 8,2 0,4
19.06.2018 21:00:00 10,7 7,2 0,2
19.06.2018 20:00:00 12,4 5,9 0,0
19.06.2018 19:00:00 13,6 4,7 0,0
19.06.2018 18:00:00 14,6 4,0 0,0
19.06.2018 17:00:00 15,2 3,9 0,0
19.06.2018 16:00:00 15,2 3,8 0,0
19.06.2018 15:00:00 14,9 4,5 0,0
19.06.2018 14:00:00 15,4 5,0 0,0
19.06.2018 13:00:00 16,4 4,5 0,0
19.06.2018 12:00:00 15,0 3,9 0,0
19.06.2018 11:00:00 14,4 4,5 0,0
19.06.2018 10:00:00 14,1 3,2 0,0
19.06.2018 09:00:00 12,8 3,3 0,0
19.06.2018 08:00:00 12,2 3,7 0,0
19.06.2018 07:00:00 11,0 3,8 0,0
19.06.2018 06:00:00 9,2 4,4 0,0
19.06.2018 05:00:00 8,2 3,4 0,2
19.06.2018 04:00:00 8,7 5,4 0,0
19.06.2018 03:00:00 7,3 5,1 0,0
19.06.2018 02:00:00 9,3 4,6 0,0
19.06.2018 01:00:00 8,7 4,5 0,4
19.06.2018 00:00:00 9,1 5,4 0,0
18.06.2018 23:00:00 8,4 4,9 0,4
18.06.2018 22:00:00 10,5 4,5 0,0
18.06.2018 21:00:00 10,9 5,0 0,0

tt = Temperatura
td = dewpoint
rr = precipitazioni

Stazioni seguenti

WeatherPro
AMSI
MeteoEarth